Location: Casteau
(50.5142°N, 4.0161°E)
Time: 13:53:57
(UTC+00:00)

Explorer 7 - All Passes

Search period start: 04 August 2021 00:00
Search period end: 14 August 2021 00:00
Orbit: 484 x 676 km, 50.3° (Epoch: 04 August)

Date Brightness Start Highest point End Pass type
(mag) Time Alt. Az. Time Alt. Az. Time Alt. Az.
04 Aug - 03:49:38 10° SSW 03:52:58 30° SSE 03:56:25 10° E daylight
04 Aug - 05:29:15 10° WSW 05:33:05 78° SSE 05:37:07 10° E daylight
04 Aug - 07:09:35 10° W 07:13:32 82° S 07:17:43 10° ESE daylight
04 Aug - 08:50:01 10° W 08:53:49 38° SSW 08:57:48 10° SE daylight
04 Aug - 10:32:38 10° WSW 10:33:31 11° SW 10:34:25 10° SSW daylight
05 Aug - 02:16:40 10° SSE 02:17:31 11° SE 02:18:22 10° ESE visible
05 Aug - 03:53:35 10° SW 03:57:08 41° SSE 04:00:50 10° E daylight
05 Aug - 05:33:33 10° W 05:37:24 86° S 05:41:26 10° E daylight
05 Aug - 07:13:55 10° W 07:17:51 72° SSW 07:22:01 10° ESE daylight
05 Aug - 08:54:29 10° W 08:57:59 28° SSW 09:01:39 10° SSE daylight
06 Aug - 02:19:10 10° S 02:21:33 16° SE 02:23:56 10° E visible
06 Aug - 03:57:40 10° WSW 04:01:21 54° SSE 04:05:11 10° E daylight
06 Aug - 05:37:52 10° W 05:41:42 89° SSW 05:45:46 10° E daylight
06 Aug - 07:18:14 10° W 07:22:07 59° SSW 07:26:14 10° ESE daylight
06 Aug - 08:59:05 10° W 09:02:07 20° SW 09:05:15 10° S daylight
07 Aug - 02:22:37 10° SSW 02:25:37 23° SE 02:28:41 10° E visible
07 Aug - 04:01:53 10° WSW 04:05:37 68° SSE 04:09:31 10° E daylight
07 Aug - 05:42:12 10° W 05:46:02 87° S 05:50:05 10° E daylight
07 Aug - 07:22:34 10° W 07:26:22 46° SSW 07:30:21 10° SE daylight
07 Aug - 09:04:03 10° WSW 09:06:11 14° SW 09:08:22 10° S daylight
08 Aug - 02:26:24 10° SW 02:29:46 32° SSE 02:33:12 10° E visible
08 Aug - 04:06:08 10° WSW 04:09:55 80° S 04:13:50 10° E daylight
08 Aug - 05:46:30 10° W 05:50:21 80° S 05:54:23 10° ESE daylight
08 Aug - 07:26:58 10° W 07:30:34 34° SSW 07:34:21 10° SE daylight
09 Aug - 00:52:53 10° SSE 00:54:16 12° SE 00:55:39 10° ESE visible
09 Aug - 02:30:23 10° SW 02:33:58 43° SSE 02:37:36 10° E visible
09 Aug - 04:10:27 10° W 04:14:13 87° S 04:18:09 10° E daylight
09 Aug - 05:50:49 10° W 05:54:39 68° SSW 05:58:40 10° ESE daylight
09 Aug - 07:31:28 10° W 07:34:44 25° SW 07:38:08 10° SSE daylight
10 Aug - 00:55:46 10° S 00:58:19 17° SE 01:00:52 10° E visible
10 Aug - 02:34:31 10° WSW 02:38:11 57° SSE 02:41:57 10° E visible
10 Aug - 04:14:45 10° W 04:18:32 89° SSW 04:22:28 10° E daylight
10 Aug - 05:55:08 10° W 05:58:55 55° SSW 06:02:52 10° ESE daylight
10 Aug - 07:36:08 10° W 07:38:50 18° SW 07:41:37 10° S daylight
11 Aug - 00:59:18 10° SSW 01:02:25 25° SSE 01:05:33 10° E visible
11 Aug - 02:38:43 10° WSW 02:42:27 71° SSE 02:46:16 10° E visible
11 Aug - 04:19:04 10° W 04:22:52 86° S 04:26:48 10° E daylight
11 Aug - 05:59:30 10° W 06:03:08 42° SSW 06:06:58 10° SE daylight
11 Aug - 07:41:22 10° WSW 07:42:54 12° SW 07:44:27 10° SSW daylight
12 Aug - 01:03:08 10° SW 01:06:34 34° SSE 01:10:01 10° E visible
12 Aug - 02:42:59 10° WSW 02:46:45 82° S 02:50:35 10° E visible
12 Aug - 04:23:23 10° W 04:27:11 77° S 04:31:06 10° ESE daylight
12 Aug - 06:03:54 10° W 06:07:20 31° SSW 06:10:54 10° SSE daylight
12 Aug - 23:29:13 10° SSE 23:31:01 13° SE 23:32:48 10° ESE visible
13 Aug - 01:07:10 10° SW 01:10:46 46° SSE 01:14:23 10° E visible
13 Aug - 02:47:18 10° W 02:51:03 88° S 02:54:54 10° E visible
13 Aug - 04:27:42 10° W 04:31:28 65° SSW 04:35:21 10° ESE daylight
13 Aug - 06:08:25 10° W 06:11:29 22° SW 06:14:37 10° SSE daylight
13 Aug - 23:32:21 10° S 23:35:05 19° SE 23:37:48 10° E visible
